Regional Weather Roundup
Issued by NWS Midland/Odessa, TX

Home | Current Version | Previous Version | Text Only | Print | Product List | Glossary On
Versions: 1 2 3 4 5 6 7 8 9 10 11 12 13 14 15 16 17 18 19 20 21 22 23 24 25 26 27 28 29 30 31 32 33 34 35 36 37 38 39 40 41 42 43 44 45 46 47 48 49 50
000
ASUS44 KMAF 270510
RWRMAF
MIDLAND AREA WEATHER ROUNDUP
NATIONAL WEATHER SERVICE MIDLAND TX
1200 AM CDT FRI APR 27 2018

...IN SOUTHWEST TEXAS AND SOUTHEAST NEW MEXICO...

CITY           SKY/WX    TMP DP  RH WIND       PRES   REMARKS
ALPINE         MOCLDY    66  27  23 N8        30.22R
ANDREWS        FAIR      61  29  30 NE18G28   30.16R
ARTESIA        MOCLDY    59  27  29 N8        30.22R
BIG SPRING     CLEAR     64  35  33 N15G24    30.15R
CARLSBAD       MOCLDY    64  28  25 N10       30.18R
DRYDEN           N/A     70  51  51 E8        29.99R
FORT STOCKTON  CLOUDY    69  29  22 NE24G37   30.11R
GUAD PASS      NOT AVBL
HOBBS          CLOUDY    59  28  31 NE21      30.18R
LAMESA         MOCLDY    61  30  31 N20G31    30.16R
MARFA          PTCLDY    64  27  24 N25G31    30.16R
MIDLAND AIRPK    N/A     66  31  27 N14G22    30.14R
MIDLAND INTL   CLEAR     65  32  29 N25G32    30.13R
ODESSA         CLEAR     64  29  26 NE16      30.14R
PECOS          MOCLDY    69  30  23 N20G28    30.12R
PRESIDIO       FAIR      79  32  18 N21G38    29.98R
SEMINOLE       CLEAR     59  30  33 NE10G20   30.18R
SNYDER         CLEAR     63  40  42 N28       30.10R
WINK           CLOUDY    67  26  21 NE21G31   30.13R
$$
...OTHER STATIONS IN TEXAS...

CITY           SKY/WX    TMP DP  RH WIND       PRES   REMARKS
ABILENE        PTCLDY    57  46  66 W9        30.04R
AMARILLO       CLEAR     50  36  58 NW7       30.22R
AUSTIN         CLOUDY    55  53  93 CALM      30.00R
BROWNSVILLE    MOCLDY    71  66  84 E5        29.95F
CORPUS CHRISTI MOCLDY    62  57  83 SE8       29.97S
DALLAS FTW     MOCLDY    59  49  69 NE6       30.01R
DEL RIO        PTCLDY    70  54  56 E13       29.95S
EL PASO        CLOUDY    71  24  17 NE12G21   30.06R
HOUSTON INT    FAIR      64  51  62 N5        29.99S
LUBBOCK        PTCLDY    54  34  46 NE12      30.19R
SAN ANGELO     MOCLDY    62  46  55 NW9       30.01R
SAN ANTONIO    CLOUDY    63  53  70 SE3       29.98F
WACO           PTCLDY    58  47  66 E3        30.00S
WICHITA FALLS  CLEAR     56  42  59 N10       30.08R
$$
...OTHER LOCATIONS IN NEW MEXICO...

CITY           SKY/WX    TMP DP  RH WIND       PRES   REMARKS
ALAMOGORDO     CLOUDY    70  23  17 S7G24     30.08R
ALBUQUERQUE    CLEAR     59  25  27 E31G44    30.18R
CANNON AFB     CLEAR     52  27  38 NE14      30.26R
CLOVIS         CLEAR     48  27  44 N13       30.25R
HOLLOMAN AFB   CLOUDY    69  22  17 NE8       30.09R
ROSWELL        PTCLDY    58  28  32 N7        30.21R
RUIDOSO        PTCLDY    48  23  37 SE12      30.35S
SANTA FE       CLEAR     51  25  36 S14       30.24R
TRUTH OR CONSE MOCLDY    68  20  16 N15G24    30.09R
TUCUMCARI      CLEAR     48  27  44 NE9       30.25R
$$



USA.gov is the U.S. government's official web portal to all federal, state and local government web resources and services.